Change the Weather History Date:

Thursday, November 22, 2012

  Actual Average Record
Temperature  
Mean Temperature 64 °F -  
Max Temperature 77 °F 58 °F 79 °F (1966)
Min Temperature 52 °F 35 °F 19 °F (1976)
Growing Degree Days 14 (Base 50)    
Moisture  
Dew Point 49 °F    
Average Humidity 56    
Maximum Humidity 73    
Minimum Humidity 36    
Precipitation  
Precipitation 0.00 in - - ()
Sea Level Pressure  
Sea Level Pressure 30.00 in    
Wind  
Wind Speed 18 mph (SW)    
Max Wind Speed 29 mph    
Max Gust Speed 37 mph    
Visibility 10 miles    
Events      
Averages and records for this station are not official NWS values.
T = Trace of Precipitation, MM = Missing Value Source: NWS Daily Summary

Daily Weather History Graph

Daily Weather History Graph

Search for Another Location

Airport or City:

Trip Planner

Search our weather history database for the weather conditions in past years. The results will help you decide how hot, cold, wet, or windy it might be!

Date:

Astronomy

Nov. 22, 2012 Rise Set
Actual Time 7:17 AM CST 5:22 PM CST
Civil Twilight 6:49 AM CST 5:49 PM CST
Nautical Twilight 6:18 AM CST 6:21 PM CST
Astronomical Twilight 5:47 AM CST 6:51 PM CST
Moon 1:59 PM CST (11/22) 1:48 AM CST (11/22)
Length of Visible Light 11h 00m
Length of Day
10h 04m
Waxing Gibbous, 71% of the Moon is Illuminated
Nov 22
Waxing Gibbous
Nov 28
Full
Dec 6
Last Quarter
Dec 13
New
Dec 19
First Quarter

Hourly Weather History & Observations

Time (CST) Temp. Dew Point Humidity Pressure Visibility Wind Dir Wind Speed Gust Speed Precip Events Conditions
12:15 AM 65.5 °F 53.1 °F 64% 29.99 in 10.0 mi South 17.3 mph 25.3 mph N/A   Clear
12:35 AM 64.8 °F 53.4 °F 67% 29.99 in 10.0 mi South 13.8 mph 19.6 mph N/A   Clear
1:15 AM 64.4 °F 53.4 °F 67% 29.98 in 10.0 mi South 18.4 mph 25.3 mph N/A   Clear
1:35 AM 64.0 °F 53.1 °F 67% 29.97 in 10.0 mi SSW 17.3 mph 25.3 mph N/A   Clear
1:55 AM 63.7 °F 52.7 °F 67% 29.97 in 10.0 mi SSW 16.1 mph 21.9 mph N/A   Clear
2:15 AM 63.5 °F 52.7 °F 68% 29.97 in 10.0 mi SSW 16.1 mph 23.0 mph N/A   Clear
2:35 AM 63.0 °F 52.5 °F 69% 29.97 in 10.0 mi SSW 13.8 mph 18.4 mph N/A   Clear
2:55 AM 62.6 °F 52.3 °F 69% 29.97 in 10.0 mi South 16.1 mph 21.9 mph N/A   Clear
3:15 AM 63.5 °F 52.7 °F 68% 29.96 in 10.0 mi SSW 18.4 mph 24.2 mph N/A   Clear
3:35 AM 63.3 °F 52.5 °F 68% 29.96 in 10.0 mi SSW 16.1 mph 21.9 mph N/A   Clear
3:55 AM 63.7 °F 52.7 °F 67% 29.95 in 10.0 mi SSW 18.4 mph 25.3 mph N/A   Clear
4:15 AM 63.5 °F 52.7 °F 68% 29.95 in 10.0 mi SSW 17.3 mph 24.2 mph N/A   Clear
4:55 AM 63.5 °F 52.7 °F 68% 29.93 in 10.0 mi South 19.6 mph 28.8 mph N/A   Clear
5:15 AM 63.0 °F 52.7 °F 69% 29.94 in 10.0 mi SSW 20.7 mph 24.2 mph N/A   Clear
5:35 AM 63.0 °F 52.7 °F 69% 29.93 in 10.0 mi SSW 20.7 mph 27.6 mph N/A   Clear
5:55 AM 62.8 °F 52.7 °F 70% 29.92 in 10.0 mi SSW 23.0 mph 31.1 mph N/A   Clear
6:15 AM 63.0 °F 52.9 °F 70% 29.93 in 10.0 mi SSW 20.7 mph 26.5 mph N/A   Clear
6:35 AM 62.8 °F 52.9 °F 70% 29.93 in 10.0 mi SSW 21.9 mph 27.6 mph N/A   Clear
7:15 AM 62.1 °F 52.9 °F 72% 29.94 in 10.0 mi SSW 17.3 mph 25.3 mph N/A   Clear
7:35 AM 61.9 °F 53.1 °F 73% 29.94 in 10.0 mi SSW 19.6 mph 29.9 mph N/A   Clear
7:55 AM 61.7 °F 52.9 °F 73% 29.94 in 10.0 mi SSW 19.6 mph 27.6 mph N/A   Clear
8:15 AM 61.7 °F 53.1 °F 73% 29.94 in 10.0 mi SSW 18.4 mph 24.2 mph N/A   Clear
8:55 AM 63.1 °F 53.1 °F 70% 29.94 in 10.0 mi SSW 24.2 mph 28.8 mph N/A   Clear
9:15 AM 63.1 °F 53.2 °F 70% 29.94 in 10.0 mi SSW 17.3 mph 26.5 mph N/A   Clear
10:15 AM 67.1 °F 54.0 °F 63% 29.94 in 10.0 mi SSW 18.4 mph 31.1 mph N/A   Clear
10:35 AM 68.5 °F 54.0 °F 60% 29.95 in 10.0 mi SSW 20.7 mph 28.8 mph N/A   Clear
10:55 AM 69.6 °F 54.3 °F 58% 29.95 in 10.0 mi SSW 20.7 mph 27.6 mph N/A   Clear
11:15 AM 71.4 °F 54.5 °F 55% 29.94 in 10.0 mi SSW 23.0 mph 27.6 mph N/A   Clear
11:35 AM 71.6 °F 54.3 °F 54% 29.92 in 10.0 mi SSW 21.9 mph 31.1 mph N/A   Clear
11:55 AM 73.6 °F 54.5 °F 51% 29.91 in 10.0 mi SSW 24.2 mph 29.9 mph N/A   Clear
12:15 PM 73.0 °F 54.1 °F 51% 29.90 in 10.0 mi SSW 19.6 mph 27.6 mph N/A   Clear
12:35 PM 72.5 °F 54.1 °F 52% 29.91 in 10.0 mi SSW 19.6 mph 26.5 mph N/A   Clear
12:55 PM 72.0 °F 54.0 °F 53% 29.91 in 10.0 mi SSW 17.3 mph 23.0 mph N/A   Clear
1:15 PM 73.8 °F 54.0 °F 50% 29.90 in 10.0 mi SSW 20.7 mph 24.2 mph N/A   Clear
1:35 PM 75.2 °F 53.8 °F 47% 29.90 in 10.0 mi SW 19.6 mph 26.5 mph N/A   Clear
1:55 PM 75.9 °F 53.8 °F 46% 29.89 in 10.0 mi SSW 17.3 mph - N/A   Clear
2:15 PM 76.6 °F 53.1 °F 44% 29.88 in 10.0 mi SSW 18.4 mph 25.3 mph N/A   Clear
2:35 PM 77.0 °F 53.2 °F 44% 29.89 in 10.0 mi SSW 18.4 mph 26.5 mph N/A   Clear
2:55 PM 77.4 °F 52.3 °F 42% 29.90 in 10.0 mi WSW 15.0 mph 23.0 mph N/A   Clear
3:15 PM 77.9 °F 52.7 °F 41% 29.91 in 10.0 mi SW 17.3 mph 23.0 mph N/A   Clear
3:35 PM 77.9 °F 52.7 °F 41% 29.91 in 10.0 mi SW 13.8 mph 18.4 mph N/A   Clear
3:55 PM 77.7 °F 51.6 °F 40% 29.92 in 10.0 mi SW 12.7 mph - N/A   Clear
4:15 PM 77.2 °F 51.8 °F 41% 29.93 in 10.0 mi SW 13.8 mph 18.4 mph N/A   Clear
4:35 PM 76.6 °F 51.6 °F 42% 29.94 in 10.0 mi SW 11.5 mph 16.1 mph N/A   Clear
4:55 PM 75.4 °F 51.4 °F 43% 29.95 in 10.0 mi WSW 3.5 mph - N/A   Clear
5:15 PM 71.6 °F 43.3 °F 36% 29.97 in 10.0 mi North 15.0 mph 20.7 mph N/A   Clear
5:35 PM 68.5 °F 41.2 °F 37% 29.99 in 10.0 mi NNW 9.2 mph - N/A   Clear
5:55 PM 66.4 °F 40.3 °F 38% 30.01 in 10.0 mi North 9.2 mph - N/A   Clear
6:15 PM 65.5 °F 39.7 °F 39% 30.02 in 10.0 mi North 10.4 mph - N/A   Clear
6:35 PM 65.8 °F 40.6 °F 40% 30.04 in 10.0 mi North 10.4 mph - N/A   Clear
6:55 PM 66.7 °F 43.9 °F 44% 30.05 in 10.0 mi North 13.8 mph - N/A   Clear
7:55 PM 64.6 °F 41.7 °F 43% 30.11 in 10.0 mi North 25.3 mph 35.7 mph N/A   Clear
8:15 PM 63.5 °F 41.0 °F 44% 30.13 in 10.0 mi North 21.9 mph 33.4 mph N/A   Clear
8:35 PM 62.4 °F 40.5 °F 44% 30.16 in 10.0 mi North 27.6 mph 34.5 mph N/A   Clear
8:55 PM 61.2 °F 41.2 °F 48% 30.18 in 10.0 mi North 28.8 mph 36.8 mph N/A   Clear
9:15 PM 60.1 °F 41.2 °F 50% 30.20 in 10.0 mi North 25.3 mph 31.1 mph N/A   Clear
9:35 PM 59.0 °F 40.3 °F 50% 30.22 in 10.0 mi NNE 28.8 mph 35.7 mph N/A   Clear
9:55 PM 57.9 °F 40.1 °F 52% 30.23 in 10.0 mi North 26.5 mph 33.4 mph N/A   Clear
10:15 PM 56.5 °F 40.1 °F 54% 30.24 in 10.0 mi North 19.6 mph 31.1 mph N/A   Clear
10:35 PM 55.6 °F 39.7 °F 55% 30.26 in 10.0 mi North 19.6 mph 26.5 mph N/A   Clear
10:55 PM 54.7 °F 39.9 °F 58% 30.27 in 10.0 mi North 16.1 mph - N/A   Clear
11:15 PM 53.8 °F 39.6 °F 59% 30.29 in 10.0 mi North 17.3 mph - N/A   Clear
11:35 PM 52.9 °F 39.6 °F 61% 30.30 in 10.0 mi North 16.1 mph 20.7 mph N/A   Clear
11:55 PM 52.7 °F 39.2 °F 60% 30.31 in 10.0 mi North 17.3 mph 25.3 mph N/A   Clear